Location: Unspecified
(0.0000°N, 0.0000°E)
Time: 08:07:28
(UTC+00:00)

ATLAS 5 CENTAUR DEB - Pass Details

Date: 20 December 2025
Orbit: 8806 x 35657 km, 13.3° (Epoch: 18 January)

Event Time Altitude Azimuth Distance (km) Brightness Sun altitude
Rises 15:43:12 0° 265° (W) 18,746 ? 30.6°
Reaches altitude 10° 16:01:44 10° 261° (W) 15,534 ? 26.4°
Maximum altitude 16:59:36 69° 169° (S) 9,282 ? 13.3°
Drops below altitude 10° 04:02:56 10° 86° (E) 25,275 ? -26.2°
Sets 04:34:35 0° 90° (E) 22,608 ? -19.1°
